Location: Bad Salzschlirf
(50.3750°N, 9.3000°E)
Time: 06:18:39
(UTC+01:00)

ISS - Pass Details

Date: 23 January 2021
Orbit: 418 x 421 km, 51.6° (Epoch: 23 January)

Event Time Altitude Azimuth Distance (km) Brightness Sun altitude
Rises 17:53:59 0° 223° (SW) 2,359 1.3 -8.5°
Reaches altitude 10° 17:56:11 10° 213° (SSW) 1,499 -0.1 -8.8°
Maximum altitude 17:59:14 32° 148° (SSE) 742 -2.6 -9.3°
Enters shadow 18:01:48 13° 87° (E) 1,326 -1.8 -9.7°
